User: anonymous   Login
Location: Unspecified
(0.0000°N, 0.0000°E)
Time: 22:16:15
(UTC+00:00)
Language:

OBJECT AV - Orbit

View from above orbital plane
View from above orbital plane
View from above satellite
View from above satellite

Ground track
Ground track

The orbit is defined by the following mean orbital elements,

1 57217U          26145.59518652 +.00000000 +00000-0 +41915-3 0 00007
2 57217  97.5078 209.8536 0011665 168.7790 191.3712 15.29254091    02
Epoch (UTC): 25 May 2026 14:17:04
Eccentricity: 0.0011665
inclination: 97.5078°
perigee height: 470 km
apogee height: 486 km
right ascension of ascending node: 209.8536°
argument of perigee: 168.7790°
revolutions per day: 15.29254091
mean anomaly at epoch: 191.3712°

The dashed part of the orbit path shows where the satellite is in the earth's shadow,  

DLR